Theta_e
299 298 298 298 298 298 297 297 297 296 295 294 294 293 293 292 292 292 293 292 293 292 291 291 290 289 289 289 290 290 290 290 289 289 289 289 291 290 290 289 289 289 288 287 286 287 286 285 285 285 285 285 284 284 284 283 284 284 284 285 284 282 282 282 283 283 282 281 282 282 282 283 285 285 284 285 286 287 287 285 285 285 285 285 285
297 295 295 295 296 296 295 296 295 294 293 293 293 292 292 292 292 292 292 292 292 293 292 291 291 291 290 290 289 290 289 289 289 289 289 290 290 290 289 289 289 288 288 287 287 286 285 285 285 285 285 284 285 284 283 287 284 283 283 281 282 282 281 282 284 282 279 279 279 280 281 281 283 284 283 284 284 285 285 284 284 284 285 286 287
294 295 294 295 295 295 294 295 295 296 293 293 293 292 292 292 292 292 292 292 292 292 292 291 291 290 290 289 289 288 289 289 289 289 289 289 289 289 289 288 288 287 287 287 286 286 285 285 285 284 284 285 283 283 283 282 282 282 282 282 281 281 282 284 282 283 279 280 280 279 277 278 282 281 282 284 284 284 284 283 285 285 286 286 285
295 294 293 293 294 294 293 293 294 294 292 292 292 292 292 292 292 292 292 292 292 292 292 291 291 289 288 289 288 288 287 288 288 288 288 288 288 289 288 288 288 287 287 287 286 286 285 285 284 284 284 284 283 282 282 281 282 282 282 283 281 279 279 279 283 282 280 280 276 277 276 277 276 276 279 282 283 283 283 284 284 285 285 284 285
295 291 292 292 292 293 293 293 293 293 292 292 292 292 293 292 292 292 292 292 292 292 292 290 290 288 288 288 288 287 287 286 286 285 287 288 288 287 288 288 288 287 287 286 286 285 285 284 284 284 283 283 283 282 281 282 282 282 282 282 280 280 279 279 280 282 281 282 280 277 275 275 275 276 279 280 281 282 283 283 284 284 283 284 284
296 294 293 293 293 293 291 291 292 292 292 293 293 293 293 292 292 292 292 292 291 291 291 290 290 289 287 287 285 285 285 285 285 286 286 287 287 288 287 288 287 287 286 286 286 285 284 284 283 283 283 283 283 282 282 281 281 281 281 281 280 281 280 279 278 281 283 282 282 280 280 275 275 278 278 275 281 282 282 282 282 282 282 284 284
293 293 293 292 292 291 290 291 291 292 292 292 292 292 292 292 292 292 291 291 291 291 291 290 289 289 288 288 287 287 286 286 287 287 287 287 287 287 287 287 287 287 286 285 285 285 284 284 284 283 283 282 283 282 281 281 281 281 282 281 281 283 280 278 278 278 279 279 281 281 281 282 280 278 275 277 274 278 278 280 281 282 282 283 283
295 294 293 293 292 292 291 291 291 292 292 291 291 292 291 292 291 291 291 291 291 291 290 290 289 289 288 288 288 287 287 286 287 287 287 287 286 287 286 286 286 286 286 285 285 285 284 283 283 283 282 282 283 281 281 281 282 282 282 281 281 281 280 279 278 278 278 277 281 280 279 280 279 278 278 277 276 274 275 279 279 281 282 281 282
296 294 293 292 292 292 292 291 292 291 291 291 291 291 292 291 291 291 291 290 290 290 290 290 290 289 289 288 287 288 287 287 287 287 287 287 286 286 286 285 285 285 285 285 284 284 284 283 283 282 282 282 283 282 281 281 281 280 280 280 279 280 280 280 279 278 277 277 278 277 277 277 277 277 278 277 275 274 275 275 276 278 280 281 282
296 296 294 293 293 292 292 291 290 291 291 291 290 290 290 290 290 290 290 290 290 290 290 290 290 289 288 288 287 286 286 285 285 286 285 286 285 285 285 285 285 284 284 284 283 283 283 283 282 282 281 281 282 281 280 280 280 280 280 279 279 279 279 280 279 278 279 278 278 278 277 276 276 276 276 275 276 276 274 275 276 276 275 277 280
295 295 293 292 292 292 291 290 290 289 289 289 289 289 289 290 290 290 290 290 290 289 290 289 289 289 288 288 287 286 285 285 285 285 285 285 284 284 284 285 284 284 283 283 283 283 282 282 281 281 281 282 282 280 280 280 280 280 280 279 280 279 279 279 280 280 279 279 278 278 277 277 276 276 275 276 275 274 275 275 276 277 276 276 278
295 293 291 291 290 290 289 290 289 289 289 289 289 289 289 289 290 289 289 289 289 289 289 289 289 289 289 288 287 287 286 286 285 285 285 285 284 284 284 284 283 283 283 282 282 282 282 281 281 281 281 281 280 280 280 280 280 280 279 279 278 278 278 279 278 277 277 278 277 277 277 278 278 277 277 277 276 276 275 275 275 276 276 277 279
294 293 291 290 291 290 289 290 289 289 289 289 289 289 289 289 289 289 289 289 289 289 289 289 289 288 288 288 287 287 286 286 286 285 285 285 285 284 283 283 283 282 282 282 282 282 282 281 280 280 280 280 280 279 279 279 279 278 278 278 277 277 278 277 277 277 277 277 277 277 277 278 277 278 278 277 277 276 275 274 275 276 274 275 277
294 293 292 291 291 290 290 290 290 290 289 289 289 289 289 289 289 289 289 289 289 289 289 288 288 289 288 288 288 287 287 287 286 286 285 285 285 284 284 284 283 283 282 282 282 282 281 281 281 280 280 280 279 279 278 278 278 278 278 277 277 277 277 277 277 277 277 277 277 277 276 276 277 278 276 277 276 276 275 275 274 275 275 275 276
291 292 291 291 291 290 290 290 290 290 289 289 289 289 289 288 288 288 288 289 289 288 288 288 288 288 288 288 288 287 287 287 287 286 286 285 285 285 284 284 283 283 283 282 282 281 281 280 280 279 279 279 279 279 279 278 278 278 278 277 277 276 276 277 277 276 277 276 276 276 277 276 276 276 277 277 277 276 276 276 275 273 273 274 274
289 290 290 289 290 289 289 289 289 289 289 288 288 289 288 289 289 289 289 289 289 288 288 288 288 288 288 287 287 287 287 287 287 286 286 286 285 285 284 283 283 282 282 281 281 281 280 280 280 279 278 278 278 278 278 278 277 277 277 277 276 278 276 276 276 276 276 276 276 276 275 275 276 277 277 277 277 277 277 276 276 274 272 270 273
289 290 290 290 286 287 288 288 288 287 287 288 289 289 289 289 288 288 288 288 288 288 288 288 288 287 287 287 287 287 286 286 286 285 285 285 284 284 284 283 282 281 281 281 281 280 280 279 279 278 278 278 278 277 277 277 277 277 276 275 275 275 276 275 276 276 275 275 275 275 275 276 275 276 276 277 277 277 277 276 276 275 275 272 271
289 288 288 287 288 289 288 288 288 288 288 288 289 289 289 289 288 288 288 287 288 288 288 288 287 287 287 287 287 287 287 286 286 285 285 284 283 283 282 281 281 281 281 281 280 279 279 279 278 277 277 277 277 277 277 276 276 276 275 275 275 275 275 275 276 275 275 275 276 275 275 275 275 275 276 276 276 276 275 276 275 275 275 273 273
287 289 289 288 288 289 289 289 289 288 288 288 288 287 287 287 287 287 287 288 288 288 288 288 288 287 287 286 286 286 286 286 286 285 284 284 283 282 281 281 280 280 280 280 279 278 278 278 277 277 276 276 276 276 276 276 275 275 275 275 275 275 274 274 274 275 275 275 274 274 274 274 275 275 275 275 276 276 275 275 275 275 275 275 274
288 288 289 289 289 289 289 289 289 288 288 287 286 286 286 287 286 286 287 286 286 286 287 287 287 287 286 286 285 286 286 286 285 284 284 283 283 282 281 280 280 280 280 279 278 278 277 277 276 276 276 276 275 275 275 275 275 275 275 275 274 274 274 274 274 274 275 275 273 273 273 273 274 274 274 274 274 275 275 274 274 274 274 274 274
288 288 288 288 288 289 289 289 289 287 286 285 285 286 287 286 286 286 286 286 286 286 286 286 286 286 286 285 285 285 285 285 284 284 284 283 282 282 281 280 279 279 279 278 278 277 277 276 276 276 275 275 275 275 275 275 274 274 274 274 274 274 273 273 273 273 273 273 273 272 273 273 273 272 273 273 273 273 273 273 274 273 273 273 273
288 288 288 288 288 288 288 288 285 284 286 285 286 286 285 286 287 287 286 286 286 286 286 286 286 286 285 285 284 284 284 283 283 283 283 282 281 281 280 279 279 278 278 278 277 277 276 276 275 275 275 275 275 275 274 274 274 273 273 274 273 273 272 272 272 272 272 273 272 271 272 272 272 272 272 272 272 272 272 272 272 272 272 272 273
287 288 289 288 288 288 288 288 287 287 288 287 286 285 286 286 286 286 286 286 286 287 286 286 285 285 284 284 283 283 283 282 282 282 282 281 281 280 280 279 278 277 277 277 277 276 276 275 275 275 275 274 274 274 274 274 273 273 272 272 273 272 272 272 271 271 271 271 271 271 271 271 271 271 271 271 271 271 271 271 271 271 271 271 272
287 287 286 288 287 286 285 286 287 287 287 287 287 287 286 286 286 286 286 286 286 286 286 285 284 284 283 283 282 282 282 282 282 282 281 281 280 279 279 279 278 277 277 276 276 276 275 275 274 274 274 274 274 273 273 273 273 272 272 272 272 272 272 271 271 271 270 270 270 270 270 270 270 270 270 270 271 271 270 270 270 271 271 270 271
287 287 287 286 285 286 288 288 288 288 288 288 287 287 286 286 286 285 286 286 286 285 284 284 284 283 282 282 282 282 282 281 281 281 281 280 279 279 278 278 277 276 276 275 275 275 275 274 274 274 273 273 273 273 272 272 272 272 272 271 271 271 271 271 271 270 271 270 270 269 270 270 270 269 269 270 270 270 270 270 270 270 270 271 271
288 287 285 286 288 289 289 289 289 288 288 288 287 287 286 286 285 286 286 285 285 285 284 284 283 283 282 282 282 281 281 281 281 281 280 279 279 278 278 277 277 276 275 275 275 274 274 274 274 273 273 273 272 272 272 271 271 271 271 271 271 271 271 271 270 270 270 269 269 269 270 270 270 269 269 270 270 270 270 270 270 271 271 271 271
288 286 287 287 287 288 289 289 289 288 287 287 287 286 286 285 285 285 285 285 285 284 284 283 283 283 282 282 282 282 282 281 281 280 279 278 278 277 277 276 276 276 275 274 274 274 274 273 273 272 272 272 271 271 270 270 270 270 270 270 270 270 270 270 270 270 270 270 270 270 270 270 270 270 270 270 270 271 271 271 271 271 272 271 271
285 284 285 288 290 291 290 289 288 288 287 286 285 285 285 285 285 284 284 284 284 284 283 283 283 282 282 282 282 282 281 281 281 279 278 278 277 276 276 276 275 274 274 274 273 273 272 272 271 271 271 271 270 270 269 269 269 269 269 269 269 269 270 270 270 270 270 270 271 271 271 271 271 271 271 271 272 271 272 272 272 272 272 272 271
285 286 287 289 289 291 291 290 289 287 286 285 284 283 283 283 283 283 283 283 284 283 283 282 282 282 282 282 282 281 280 280 279 278 277 276 276 276 275 274 274 274 274 273 273 272 271 270 270 270 269 270 269 269 269 269 269 269 269 269 270 270 270 270 270 270 271 271 272 272 272 272 273 275 276 276 276 276 274 274 275 275 274 274 273
286 288 289 290 290 291 291 290 289 287 286 285 284 283 283 283 282 282 282 283 283 282 282 282 282 282 282 281 281 280 279 279 278 277 276 276 275 274 274 273 273 272 272 271 271 270 270 270 269 269 269 269 269 269 271 274 273 270 270 270 270 270 270 270 270 271 272 273 273 273 274 276 276 277 277 278 278 278 279 277 276 275 275 274 274
287 288 289 290 291 291 290 290 289 289 287 286 286 285 283 282 282 281 282 282 283 282 282 282 282 282 281 280 280 279 278 277 277 276 275 274 274 273 272 272 271 270 270 269 269 269 269 269 269 268 268 268 269 269 274 276 276 275 271 271 270 271 271 271 272 272 272 273 274 274 274 275 275 276 275 277 277 278 278 279 279 279 279 276 274
291 291 291 291 291 290 289 290 290 290 288 287 286 285 283 282 282 281 282 281 282 282 282 282 282 281 280 279 279 278 277 276 276 275 274 273 273 272 271 271 269 269 269 268 269 269 268 268 269 269 269 269 269 272 275 276 277 278 276 271 271 271 272 273 273 273 273 274 274 274 274 274 274 274 274 274 276 277 278 278 278 279 279 279 280
294 295 294 293 291 290 290 291 291 290 290 289 287 286 283 283 282 282 281 280 281 281 281 281 280 279 279 278 278 277 276 275 275 274 273 272 271 271 270 269 269 269 268 268 268 268 268 268 268 268 268 269 269 274 276 277 277 278 278 277 274 274 273 273 274 274 274 274 274 273 273 273 274 276 275 274 274 274 276 277 278 278 278 279 279
292 292 292 292 291 291 291 291 291 292 291 291 289 287 287 285 283 281 280 280 280 280 280 279 279 279 278 277 277 276 275 275 274 273 272 271 270 270 270 269 268 268 268 268 267 267 267 267 268 268 269 269 269 274 277 277 277 278 278 278 275 274 274 274 274 274 274 274 273 272 272 272 273 273 274 274 274 274 274 274 274 275 275 277 279
293 291 290 290 290 289 289 290 290 290 290 289 288 287 286 282 281 280 280 280 280 280 279 279 278 278 277 277 276 276 275 274 273 272 271 270 270 270 269 268 268 268 267 267 267 267 267 268 269 269 269 269 269 275 277 277 277 277 278 277 275 275 274 274 274 274 273 273 273 273 272 272 273 273 273 274 274 274 275 275 275 275 275 276 276
291 290 290 290 289 289 289 290 291 290 289 288 289 287 284 283 281 281 279 280 279 279 279 278 277 277 277 277 276 275 274 273 272 271 270 270 270 269 268 268 267 267 267 267 267 267 267 268 269 268 269 269 270 275 276 276 276 277 277 275 275 274 274 273 272 273 272 273 273 273 272 272 273 273 275 277 277 275 275 274 274 274 274 274 275
290 290 290 291 292 290 290 290 289 289 288 287 287 284 283 280 279 279 279 278 278 278 278 277 277 277 276 276 276 275 273 272 271 270 270 270 270 269 268 268 267 267 267 267 267 267 268 268 268 268 268 268 269 273 275 275 276 277 276 274 274 273 272 272 272 272 272 272 273 273 273 273 273 273 275 277 278 277 274 274 273 273 273 274 274
289 288 288 288 288 288 288 287 288 288 287 285 281 281 280 279 279 278 278 277 278 278 278 278 278 277 276 276 276 275 273 272 271 270 270 271 270 269 268 268 267 266 267 267 268 267 268 268 268 268 268 267 267 271 274 275 275 276 276 273 273 272 271 271 271 272 272 272 273 275 275 274 273 273 275 277 278 276 274 274 273 273 273 272 273
288 286 286 286 286 286 286 285 284 285 282 279 279 279 280 279 278 277 278 277 277 278 278 278 278 277 276 276 275 275 274 272 271 271 271 270 269 268 268 267 268 268 267 268 268 267 267 267 268 267 270 268 267 270 274 274 275 276 275 274 273 271 271 271 271 271 272 272 273 274 275 275 274 274 276 277 277 276 274 274 273 272 271 271 271
288 289 287 286 285 285 287 288 286 283 277 278 278 278 279 279 277 276 277 277 278 279 279 278 277 276 276 275 275 274 274 272 272 271 270 270 269 267 267 267 268 268 267 267 267 267 266 266 267 267 268 268 267 267 270 274 275 276 276 273 272 271 270 270 271 271 271 272 273 273 273 274 275 275 276 276 277 278 275 274 273 271 270 269 271
287 287 288 288 288 285 286 287 287 282 278 278 277 278 278 277 276 276 277 278 278 277 277 277 277 276 275 275 275 274 273 272 272 271 270 268 268 267 267 267 267 267 267 266 266 266 266 266 266 267 267 268 268 267 269 274 275 276 276 275 272 271 271 271 271 271 272 271 271 271 271 273 274 275 275 277 277 277 276 274 272 270 270 271 275
287 287 287 287 288 287 287 288 286 280 278 278 280 280 278 276 276 276 278 276 276 276 276 275 275 275 274 274 273 273 273 272 271 270 268 267 267 267 267 267 267 266 266 265 266 265 265 266 266 266 266 266 269 270 268 273 275 275 276 276 272 272 273 272 271 272 272 271 271 270 270 271 273 275 276 276 276 276 276 272 270 274 276 276 273
285 286 287 287 287 288 288 287 286 279 279 280 279 280 279 278 277 279 277 276 275 275 275 274 273 272 272 272 272 271 271 270 269 269 268 267 266 266 266 266 266 266 265 265 265 265 265 265 265 266 266 267 268 270 271 270 274 275 275 275 275 274 275 274 272 270 270 270 270 270 270 272 274 275 275 275 275 275 273 271 274 275 275 275 272
285 285 286 286 287 287 288 288 286 279 279 281 280 281 280 279 280 279 276 275 274 274 273 272 272 271 270 270 270 270 270 269 268 268 267 266 265 265 265 265 266 265 265 264 264 264 264 264 265 265 266 267 268 269 272 272 272 274 274 275 275 275 276 273 273 271 271 270 269 269 270 274 274 274 273 273 273 272 270 272 273 274 273 271 266
285 286 286 286 286 286 287 287 286 280 279 280 280 281 280 278 279 277 276 274 273 272 271 271 271 270 270 269 269 268 268 268 267 267 267 266 265 264 264 265 265 265 264 264 264 264 264 265 265 266 266 267 268 268 269 271 273 273 274 274 275 275 274 274 271 270 270 269 271 273 273 273 272 272 272 271 270 269 271 272 272 272 270 265 263
286 287 287 287 288 288 287 286 286 283 279 279 280 281 281 282 275 275 275 274 272 271 271 270 270 269 269 268 267 267 267 267 267 267 267 266 265 265 264 265 265 264 264 264 264 264 265 265 265 266 266 267 267 267 267 268 271 272 273 274 274 273 273 273 272 271 271 272 272 272 271 270 269 269 267 266 266 266 270 270 270 269 264 263 262
285 286 287 287 287 288 288 287 286 285 282 281 281 281 282 281 275 276 274 273 272 272 271 270 269 268 267 267 267 266 265 266 266 266 266 266 265 265 264 264 264 264 264 264 265 265 265 265 265 266 266 266 266 265 266 267 268 268 269 271 271 271 272 272 270 269 269 266 267 267 266 268 267 268 268 267 267 266 264 263 263 263 262 262 262
285 285 286 286 287 287 287 287 287 287 285 282 280 281 281 280 276 275 273 272 272 272 271 269 268 267 266 266 266 265 265 265 265 265 265 264 264 265 264 264 264 264 265 265 265 265 265 265 265 265 265 265 265 265 265 266 267 268 268 270 270 269 269 269 267 268 267 265 262 264 263 261 261 260 261 259 260 260 261 261 261 261 261 263 265
283 284 285 285 286 286 286 286 287 288 287 285 282 281 281 279 276 274 273 272 272 270 270 268 267 266 265 265 266 265 265 265 265 264 264 264 264 264 264 265 267 267 267 267 266 266 266 267 266 266 265 264 264 264 265 269 268 270 269 270 269 269 269 268 269 270 264 260 258 256 256 258 257 258 258 257 258 258 259 260 260 260 261 262 262
283 284 284 284 285 285 285 285 286 287 287 286 284 282 279 278 275 273 272 272 271 269 268 267 266 265 265 264 264 264 264 264 264 264 263 264 266 268 267 266 266 270 272 272 272 267 267 267 266 266 266 265 264 265 271 273 273 273 274 273 272 272 272 270 271 270 264 254 255 254 255 255 256 256 256 257 257 257 258 258 259 262 261 260 261
281 281 282 282 283 284 284 285 285 285 286 285 284 282 279 276 275 273 272 272 270 269 268 266 265 265 265 264 264 263 264 264 264 263 263 263 264 267 271 271 270 271 272 273 273 272 273 271 268 266 268 270 270 272 274 274 274 274 273 273 272 272 272 271 270 264 256 254 254 254 255 254 255 255 255 256 257 257 257 258 258 259 260 261 261
Wind_Speed
10 7 11 13 13 12 10 10 10 10 11 13 14 14 15 16 14 15 13 13 13 12 12 12 12 8 7 10 11 9 9 8 8 7 8 7 9 9 9 8 8 8 7 7 7 7 7 7 6 5 5 6 6 6 6 5 3 3 2 1 1 2 2 2 5 6 6 5 4 6 6 6 9 5 2 3 1 3 5 6 7 6 5 3 3
4 5 6 6 8 8 8 9 10 13 10 13 16 15 14 14 16 15 12 13 14 15 13 12 12 13 13 12 10 10 9 10 10 8 9 7 9 9 8 8 8 8 7 7 7 7 7 7 6 7 6 6 5 5 4 4 4 3 3 2 2 2 1 2 4 6 5 7 10 10 2 3 5 0 1 1 7 8 7 5 5 3 4 3 4
6 7 5 8 10 10 10 10 12 15 15 16 14 14 14 14 14 14 13 14 13 13 12 12 8 7 8 7 9 7 3 4 5 5 6 8 8 9 8 8 9 7 8 7 7 7 7 7 7 7 6 6 6 5 5 4 4 3 3 3 1 2 1 1 2 5 2 5 5 4 7 9 3 4 2 8 8 7 4 3 3 3 4 4 4
12 8 9 9 11 10 9 10 12 10 11 10 13 16 14 14 13 14 14 13 12 12 11 9 9 6 4 6 5 5 6 6 5 6 6 8 8 8 8 9 9 9 8 8 7 7 8 8 6 6 7 6 6 6 5 4 4 3 4 3 2 2 2 1 2 3 2 5 6 1 4 3 10 1 8 5 3 5 2 8 5 6 5 6 5
10 6 6 8 10 13 16 13 11 13 13 15 15 15 13 16 16 15 14 14 12 12 12 10 8 7 6 6 5 5 4 5 6 6 8 8 8 8 10 10 10 9 8 8 8 8 7 7 7 7 6 6 6 6 6 5 5 4 5 3 2 1 1 0 1 3 4 1 1 2 3 3 2 5 12 14 1 5 4 5 6 4 5 5 4
12 13 14 14 14 9 6 9 13 12 14 15 15 16 14 13 13 13 11 11 12 13 13 11 11 11 10 10 10 8 8 10 13 14 12 13 14 9 7 8 9 8 8 8 8 7 7 7 6 6 6 6 6 6 5 5 4 5 4 4 3 3 2 1 2 1 0 3 2 3 3 4 5 5 5 8 6 12 10 6 3 3 3 5 5
6 6 8 9 9 10 10 12 14 15 15 12 12 13 13 13 14 14 13 11 11 12 13 11 11 11 15 15 14 14 14 11 9 8 10 8 6 10 9 8 9 9 8 8 7 7 7 6 6 6 5 5 4 5 5 5 5 4 3 4 4 3 3 1 3 3 3 2 1 2 3 3 2 1 4 5 12 2 3 8 7 6 5 6 8
10 11 11 12 13 16 17 17 14 17 13 11 12 12 14 15 14 14 11 11 11 12 14 14 14 13 13 13 12 12 12 12 12 11 9 8 9 9 8 8 8 8 8 7 7 7 7 7 6 5 6 5 5 6 5 4 5 3 3 3 3 4 4 3 2 0 1 3 0 4 4 3 3 3 3 4 7 13 6 3 4 9 8 6 5
12 11 13 14 15 15 13 13 13 9 10 13 14 14 13 12 13 12 12 12 12 15 15 15 14 14 14 12 11 9 9 8 7 7 8 8 10 8 8 8 7 7 7 7 7 7 6 6 6 6 6 5 5 5 4 5 5 4 3 4 3 3 3 3 2 2 2 4 4 3 2 2 3 3 4 2 4 6 14 1 6 2 3 8 12
10 13 13 13 13 13 12 9 8 11 9 8 8 8 10 10 12 14 14 13 13 15 16 16 15 13 13 13 14 11 8 7 8 10 9 9 11 10 9 9 8 7 7 7 7 6 6 6 6 6 6 5 5 5 4 5 4 4 4 3 3 3 3 3 3 3 3 3 3 4 3 3 3 2 1 1 3 6 11 12 9 14 13 4 7
10 10 8 8 8 9 7 11 11 7 7 8 9 10 10 11 13 15 16 13 14 16 17 17 15 14 14 15 15 14 12 11 11 10 10 10 11 11 10 9 8 9 7 7 7 7 6 6 6 6 6 5 5 5 5 5 5 4 4 3 3 4 3 3 1 1 3 3 4 5 5 5 5 4 5 4 2 5 9 13 11 8 11 17 5
8 7 7 7 7 7 7 10 11 12 9 11 10 11 12 13 13 16 14 15 14 15 16 16 15 15 14 15 16 15 15 13 15 15 14 15 13 12 10 9 9 8 8 8 8 8 8 7 6 6 6 6 6 5 5 5 5 4 3 4 4 4 3 2 2 2 3 4 4 5 5 5 5 5 4 4 5 7 6 13 13 14 14 8 9
8 8 8 9 12 13 12 12 10 12 15 15 15 14 13 13 15 16 17 16 16 15 17 17 15 16 16 16 15 13 14 14 14 14 13 14 13 12 12 12 10 10 10 10 10 11 9 9 8 8 7 6 6 5 4 5 5 5 5 4 4 2 2 2 2 3 4 5 6 4 5 4 5 4 2 2 3 4 6 11 12 8 15 18 6
9 9 11 12 12 12 13 13 14 13 14 15 14 14 13 13 14 17 18 16 14 15 17 17 18 17 15 15 14 13 14 14 13 13 13 12 12 14 15 14 14 15 14 14 12 11 9 8 8 8 7 6 6 6 5 5 6 6 4 4 3 3 2 2 3 3 4 4 3 5 4 5 5 3 3 3 5 5 7 8 12 11 10 16 15
6 9 11 13 13 12 13 13 13 13 13 13 13 14 13 14 15 18 16 16 17 18 16 18 17 16 15 14 13 12 13 12 12 11 12 13 11 12 12 11 12 11 12 10 10 11 10 9 8 8 8 7 6 6 6 5 5 4 4 3 3 2 2 2 3 4 5 5 4 4 5 4 3 2 2 4 4 5 6 7 7 15 17 11 13
6 8 8 8 9 9 8 9 11 10 11 11 12 13 14 17 17 19 20 18 18 17 17 19 18 15 15 15 16 14 11 10 9 9 11 12 12 13 12 11 10 9 8 9 10 11 10 10 9 8 7 7 7 6 6 6 5 5 4 3 3 2 3 3 3 3 5 4 4 4 3 4 2 2 3 5 5 6 6 5 6 7 10 20 15
6 8 10 10 6 7 10 10 8 8 9 14 18 18 20 18 16 18 17 14 16 18 18 16 15 15 17 16 14 14 15 15 14 13 12 10 10 10 10 10 9 9 9 9 11 9 9 9 9 8 8 7 7 6 6 6 5 5 5 3 3 2 3 3 3 4 4 4 4 4 4 4 2 1 3 4 5 5 6 5 5 6 7 10 13
8 6 5 5 7 9 9 8 10 13 16 16 17 15 13 13 15 17 16 17 18 17 17 16 16 17 16 17 17 17 16 14 12 12 11 10 9 9 8 9 10 10 10 9 10 10 9 9 9 8 7 7 7 6 6 6 6 5 4 3 3 3 3 3 3 4 4 3 4 4 3 4 2 2 4 4 4 5 5 5 5 4 4 8 9
5 9 9 8 10 12 13 15 15 14 12 11 10 9 9 10 12 13 17 20 19 15 13 12 13 13 14 17 17 15 14 13 11 11 11 12 13 11 12 11 9 10 10 10 10 10 9 8 8 8 7 7 7 7 6 6 5 5 4 4 3 3 4 4 4 4 4 3 4 4 3 2 1 2 3 3 4 4 6 5 5 5 5 6 9
8 9 10 11 11 12 13 14 14 16 16 12 9 7 11 13 11 12 12 9 9 13 15 16 16 13 12 11 12 13 13 13 12 13 13 14 13 12 12 11 12 10 11 11 11 11 10 10 8 8 8 7 7 6 6 6 6 5 5 5 4 4 4 4 4 3 3 3 3 3 2 2 2 2 3 4 4 4 3 4 3 4 4 5 6
8 8 9 10 11 11 12 12 12 6 4 6 9 14 15 11 12 14 16 16 15 15 14 15 12 14 13 15 16 14 15 12 12 13 13 12 12 12 12 12 10 12 11 12 12 12 11 10 10 9 9 8 8 7 6 6 6 5 5 5 4 5 5 5 3 4 3 3 3 3 3 3 1 3 4 4 4 4 4 5 5 5 6 6 7
9 9 8 9 9 10 9 7 5 5 7 9 13 11 10 14 17 14 12 13 15 15 15 15 12 11 13 14 13 11 11 11 14 13 14 13 13 13 12 11 13 11 13 13 13 11 10 11 10 9 9 8 8 8 7 7 7 7 6 5 6 6 5 5 4 4 4 4 3 3 3 3 2 4 5 5 5 5 5 6 6 6 6 6 6
8 9 9 10 9 11 11 10 11 13 14 12 9 11 15 16 14 14 16 18 17 17 13 11 12 12 13 10 9 11 11 12 14 13 15 14 13 12 12 14 13 12 10 12 12 12 12 11 10 10 10 9 9 9 8 8 8 8 7 6 6 6 6 5 5 5 4 3 3 3 4 3 3 4 5 6 5 6 5 7 7 6 7 7 7
8 7 6 7 7 6 4 7 11 12 13 15 16 15 14 12 13 13 16 18 16 14 12 11 11 11 10 11 12 11 12 13 14 13 15 14 13 12 12 13 13 11 13 10 11 12 11 12 11 11 11 10 10 9 9 8 8 8 7 7 6 6 5 5 5 4 4 3 3 4 4 3 4 6 7 6 6 6 6 6 7 7 8 8 8
9 9 9 7 5 7 11 12 13 14 13 13 14 14 14 15 13 15 17 16 13 9 10 12 13 13 12 13 13 13 15 15 15 12 14 14 14 13 12 13 12 12 12 11 10 11 12 12 12 13 12 11 11 10 9 8 7 6 7 6 6 5 4 4 5 5 4 3 4 5 5 4 5 7 7 7 6 7 7 6 7 7 8 8 9
11 8 6 8 11 11 10 11 12 13 13 14 14 14 14 14 15 15 14 12 14 13 13 12 13 14 14 15 15 14 16 17 16 13 14 13 13 13 13 11 13 14 12 12 13 12 12 13 11 11 11 10 9 9 9 8 7 7 6 6 5 5 5 5 5 5 4 4 5 6 6 6 7 8 8 7 7 8 7 8 9 9 10 10 12
9 7 7 7 7 11 13 13 12 11 11 12 13 14 14 15 15 14 14 13 13 13 13 14 14 15 14 15 16 18 17 16 16 14 11 11 12 12 13 14 12 13 13 12 11 12 9 10 10 10 10 10 9 9 8 7 7 7 6 6 5 5 5 5 5 5 5 6 6 6 6 7 8 8 8 8 8 8 8 11 11 12 13 13 13
4 3 6 10 13 14 13 12 11 12 12 11 11 13 14 15 16 14 13 12 11 14 14 14 14 14 15 16 16 14 14 15 13 12 12 12 11 11 12 11 11 12 13 12 13 12 9 8 9 9 9 8 9 8 8 7 7 7 6 5 5 5 5 5 6 6 6 7 7 7 8 8 9 8 9 9 10 10 10 12 11 11 12 13 12
4 7 7 12 14 14 14 12 12 12 12 13 12 11 10 10 10 10 11 14 13 13 13 14 14 16 16 15 12 10 9 10 12 12 13 13 12 11 10 10 10 10 9 10 9 10 11 10 8 9 9 8 8 8 7 8 8 7 6 6 6 6 6 6 6 6 7 7 7 7 8 8 9 13 17 15 14 14 10 9 9 9 10 11 13
6 10 13 15 15 14 13 11 11 12 14 13 12 12 13 14 14 12 13 13 12 14 15 15 16 17 14 12 12 11 11 11 12 14 14 13 12 12 11 11 10 10 9 9 9 9 9 10 10 9 8 8 7 6 9 15 11 7 7 6 5 5 6 6 6 7 7 7 7 8 8 15 17 17 17 19 19 20 21 17 13 11 11 11 12
10 13 15 12 12 14 13 11 13 15 15 14 14 15 13 13 11 10 13 13 13 14 14 15 17 14 12 11 12 12 12 13 13 12 11 13 13 12 11 11 10 9 10 9 10 11 10 10 11 11 11 9 8 7 16 15 15 16 9 6 6 6 5 7 7 7 7 7 8 9 9 11 13 15 14 19 19 20 20 21 24 24 21 16 14
15 14 12 12 14 16 13 15 17 17 15 13 13 13 11 13 12 13 13 11 13 13 15 15 14 11 12 13 13 13 13 12 12 13 13 13 12 12 12 12 11 11 10 10 11 11 10 10 9 9 8 6 6 11 16 16 15 15 13 8 6 6 6 7 7 7 7 7 8 8 9 7 8 10 10 11 14 19 21 22 24 24 25 26 25
18 18 16 16 16 15 16 17 16 15 15 15 16 12 12 14 13 15 10 12 14 14 14 12 11 12 13 13 12 14 14 13 14 13 13 13 14 14 13 13 14 12 10 12 11 10 9 9 9 9 8 8 7 14 16 16 15 14 15 12 7 7 6 6 7 7 7 8 8 8 8 9 7 14 12 11 11 12 17 23 24 25 26 27 26
12 12 12 12 12 12 13 15 16 17 17 16 13 15 16 14 12 7 12 13 13 12 12 12 11 12 13 13 13 14 14 14 13 13 13 14 14 15 13 11 10 10 11 10 10 11 10 10 10 10 9 8 8 13 16 16 14 14 14 12 5 6 6 6 7 8 7 8 9 9 8 9 9 9 10 11 11 12 12 13 13 13 13 19 24
13 12 11 12 11 11 12 12 13 16 14 11 10 11 11 6 9 12 12 13 13 13 12 12 13 13 13 13 14 15 15 14 14 14 14 14 15 13 13 12 12 13 13 13 13 12 10 10 9 7 7 7 6 14 15 14 13 13 13 11 5 6 6 6 5 5 7 9 9 9 9 10 10 11 10 12 13 12 12 12 13 14 13 12 13
14 11 11 10 10 12 13 14 14 10 10 9 12 10 9 11 8 12 11 12 12 12 13 11 12 13 15 15 15 15 14 14 14 14 15 16 15 15 16 12 11 9 7 7 7 7 10 10 9 8 8 5 7 15 14 14 14 13 14 7 5 6 5 3 3 7 8 8 8 9 9 10 11 11 14 19 18 14 13 14 14 13 14 16 16
14 14 13 13 13 10 10 10 9 8 9 11 10 6 8 6 8 8 10 10 11 12 13 15 14 14 15 15 15 16 15 15 15 16 16 16 15 13 12 10 12 11 11 11 11 10 10 10 11 9 8 6 7 13 15 15 14 14 11 5 6 4 3 4 5 7 7 8 8 9 10 10 11 11 15 19 20 20 13 13 15 18 16 15 13
13 15 14 13 12 11 10 6 9 10 9 5 2 5 7 7 8 8 10 11 13 14 15 15 16 15 15 15 15 15 16 16 15 18 17 14 12 11 12 12 14 13 12 12 9 6 6 7 8 9 8 8 7 11 16 14 14 14 11 6 4 5 4 3 4 7 7 8 9 15 13 10 11 12 16 19 20 17 13 13 14 14 15 14 13
10 9 12 14 12 11 9 8 6 7 9 3 2 5 7 7 8 9 9 11 14 15 13 16 17 15 14 14 14 15 16 17 17 17 15 16 15 15 12 11 11 12 12 9 7 7 6 4 5 6 13 9 7 10 15 14 15 15 11 6 6 4 4 5 5 6 7 7 8 9 12 12 12 13 18 18 20 17 13 12 12 15 16 17 16
12 13 10 8 8 11 13 12 10 8 3 1 1 2 4 5 6 6 9 11 14 17 15 10 9 12 13 13 14 16 16 17 17 14 12 13 11 10 12 12 10 11 12 8 7 7 9 8 8 7 9 9 8 6 10 16 15 15 14 7 5 5 5 6 6 6 6 7 7 8 9 13 15 15 16 18 19 22 15 12 11 12 13 15 14
13 13 12 12 12 8 8 9 8 3 1 2 4 4 4 4 5 7 12 14 6 2 3 5 5 8 11 13 12 14 15 13 12 13 12 11 11 12 12 12 12 10 12 9 8 7 7 8 8 8 7 8 7 8 9 16 15 15 14 11 6 6 5 5 6 7 6 5 5 7 7 11 14 15 16 19 21 21 20 13 10 10 12 17 21
12 11 10 12 13 12 10 10 9 2 3 5 5 5 4 4 5 10 12 2 4 6 7 8 8 7 7 9 10 10 10 11 11 11 12 11 9 9 11 13 11 10 11 8 8 7 7 7 8 8 7 7 9 12 7 13 15 15 13 14 7 6 6 6 6 5 4 5 7 7 7 10 14 16 18 20 20 19 21 12 11 19 24 26 19
18 20 18 14 13 14 14 12 10 5 3 4 5 6 6 6 9 11 4 5 5 7 8 9 10 10 10 9 9 11 11 10 11 12 13 13 11 11 12 12 14 9 9 10 9 8 8 8 7 6 6 7 8 10 13 9 14 14 14 12 11 9 10 4 2 3 4 5 6 7 8 13 15 16 18 18 18 20 16 12 20 22 23 26 21
14 11 12 12 14 14 15 13 11 6 3 3 5 6 6 8 14 7 7 7 8 8 10 10 10 10 10 10 10 11 10 10 12 13 13 13 13 13 13 13 12 16 12 8 8 7 7 7 7 7 6 5 6 5 11 14 11 14 12 12 11 9 8 3 3 3 2 5 7 8 9 14 16 16 16 16 16 16 13 19 21 22 23 21 11
16 15 13 9 11 15 16 16 14 8 5 3 3 5 5 9 6 6 8 10 10 10 10 10 11 11 11 9 9 9 10 11 11 13 14 13 13 15 14 12 14 10 9 9 8 7 7 6 6 7 7 6 5 5 5 11 15 13 13 12 10 9 7 8 3 1 2 4 9 12 13 14 14 14 15 14 12 13 17 19 21 22 20 9 10
12 14 15 13 13 13 13 13 13 9 6 4 4 5 8 10 3 6 6 8 10 12 12 12 11 10 12 12 12 10 10 11 12 11 13 13 15 15 14 13 10 8 7 8 9 9 7 7 7 7 7 6 7 6 5 5 9 11 11 12 10 8 7 7 7 4 7 10 9 10 12 11 10 10 9 7 6 9 16 19 20 18 9 8 8
15 14 14 14 13 13 14 14 13 9 6 7 8 9 11 7 7 7 8 9 10 10 11 11 12 11 11 12 14 11 10 10 11 10 10 11 12 11 8 9 9 9 9 9 9 10 9 7 8 9 8 8 7 6 6 6 5 5 4 5 6 4 6 7 3 2 4 0 3 4 5 9 8 12 12 12 11 12 10 9 7 7 7 8 8
12 12 13 13 13 14 14 14 14 13 7 8 10 11 11 7 4 7 8 10 11 12 12 12 13 12 12 12 13 14 15 9 12 13 13 12 11 7 10 12 12 12 12 10 10 8 9 12 11 11 10 8 7 6 7 7 7 6 6 5 5 5 5 4 3 3 4 1 0 4 6 4 4 5 5 4 4 4 7 7 8 7 8 9 11
17 15 12 12 13 14 14 15 15 13 11 8 11 12 9 9 8 8 10 12 11 11 10 11 11 11 11 11 12 13 12 13 12 11 12 10 7 9 8 4 11 12 15 16 15 13 12 13 12 14 13 10 8 9 8 9 7 10 8 7 6 5 5 5 5 6 5 2 2 2 2 4 3 5 5 5 6 6 7 7 8 9 8 8 8
16 14 15 15 14 14 14 15 15 14 13 11 12 12 9 8 8 9 10 12 10 9 9 10 10 11 10 11 11 11 12 13 13 13 11 9 5 12 13 12 13 15 15 12 14 14 15 13 12 10 11 14 14 11 15 18 16 16 15 12 11 10 11 8 7 5 6 2 0 1 3 3 4 4 5 6 7 7 8 8 7 10 10 9 9
19 18 17 16 16 15 15 16 16 14 13 13 13 12 9 8 10 10 12 12 11 10 9 9 10 11 12 13 13 12 13 13 12 12 13 12 10 11 17 17 10 14 14 14 12 13 18 16 14 13 10 12 15 19 20 17 16 14 12 11 10 10 9 9 7 7 4 1 0 2 3 3 3 3 4 6 6 7 8 8 9 8 8 10 11
Wind_Direction
258 200 207 205 193 188 181 171 170 169 167 167 166 171 169 169 166 175 176 169 165 166 172 168 170 164 167 180 179 178 176 171 173 170 169 167 166 165 164 163 164 167 169 163 165 159 155 154 155 167 167 161 161 159 160 155 151 146 133 106 40 17 347 6 329 324 324 307 241 255 278 257 266 266 258 317 30 299 278 296 286 289 297 307 301
276 230 217 196 184 178 167 167 158 165 181 170 174 174 171 170 176 175 175 177 178 177 175 178 178 178 173 181 175 176 167 171 175 183 175 161 165 166 164 165 166 169 170 167 166 161 156 159 165 172 168 169 164 160 144 141 129 110 118 47 35 40 345 3 325 357 14 359 332 331 258 294 260 334 67 79 350 319 306 297 298 300 310 314 338
251 244 203 190 181 175 169 173 180 177 172 176 172 167 174 177 182 176 180 180 184 179 174 180 175 173 174 169 170 167 180 165 161 158 150 158 169 167 163 166 167 171 172 171 168 168 164 162 172 171 171 164 149 139 136 128 131 118 102 118 35 11 354 304 24 62 333 318 283 326 336 1 337 7 354 344 305 294 287 289 297 311 301 314 318
239 214 191 187 182 176 172 177 180 168 167 172 174 177 179 184 183 180 183 184 180 182 178 173 167 152 128 136 140 147 167 156 143 142 150 151 169 173 171 169 170 172 174 171 171 169 167 170 170 172 176 167 156 146 138 136 122 108 108 107 102 26 27 314 48 46 47 353 4 40 291 4 329 202 312 277 266 282 17 328 326 315 317 321 331
225 207 204 183 178 186 186 181 166 173 177 179 179 181 185 186 184 183 181 184 181 177 175 160 144 134 120 112 112 94 88 140 146 166 174 171 162 182 184 173 172 172 173 173 170 171 170 170 172 176 166 163 148 142 145 155 152 146 133 119 130 156 238 262 319 58 357 350 178 2 346 6 213 294 337 307 11 306 313 310 324 328 324 320 321
206 199 195 192 190 179 174 169 178 181 183 187 183 184 181 183 182 183 182 182 182 178 171 165 168 163 155 157 170 174 174 175 187 183 179 183 189 178 165 173 169 170 175 173 171 168 172 174 173 167 165 158 150 150 149 136 137 132 150 137 142 166 176 229 277 347 43 317 262 187 193 222 305 314 351 298 343 300 297 318 324 319 321 319 307
227 212 192 185 188 177 184 185 187 187 193 180 182 184 182 180 183 183 183 182 177 175 172 170 174 179 181 182 181 183 182 198 189 183 182 180 155 172 177 175 174 170 178 174 173 173 171 172 171 169 164 159 151 139 148 154 148 147 133 122 150 150 131 231 271 285 9 296 277 269 276 265 210 298 259 308 314 341 14 329 327 327 312 299 297
195 202 199 193 183 183 188 194 189 195 181 175 180 184 184 183 182 183 181 180 178 174 180 181 181 184 186 189 188 191 191 186 182 183 177 165 168 175 168 177 174 175 172 176 173 172 169 171 169 164 161 163 150 155 156 154 132 124 127 132 130 148 162 190 226 195 283 277 351 297 292 292 288 262 236 238 272 297 289 285 267 291 307 304 288
194 197 199 192 191 196 193 191 199 184 178 182 186 186 184 178 178 178 183 181 181 180 183 188 187 186 187 184 190 198 187 180 171 165 168 168 170 170 171 172 173 175 175 173 175 171 171 170 166 163 162 166 155 152 155 146 146 139 128 128 149 158 168 184 154 180 185 251 303 287 276 262 294 271 274 258 276 299 295 288 305 211 247 283 289
208 207 198 194 194 194 196 188 182 193 186 188 183 176 179 173 179 180 188 186 183 184 187 189 189 183 187 190 189 186 176 162 167 171 173 171 176 176 175 174 175 172 176 174 170 174 169 166 166 167 168 166 158 160 153 141 135 136 145 153 160 175 188 174 177 198 205 234 224 247 284 309 316 303 257 338 266 227 273 305 311 314 308 264 284
206 207 201 193 190 191 171 184 191 182 185 181 183 181 179 180 182 188 192 187 186 189 187 191 189 189 192 190 189 185 180 171 172 181 176 176 180 178 177 177 174 177 168 174 172 170 172 171 169 170 167 165 156 156 163 152 146 143 150 160 181 183 187 163 183 194 207 227 236 222 240 242 241 262 283 291 275 294 308 298 307 295 293 304 248
194 181 181 169 171 185 182 191 187 189 180 189 188 183 185 186 186 191 192 192 191 190 190 191 191 195 195 191 192 189 180 182 184 183 183 182 180 178 175 169 176 169 172 170 178 175 172 174 169 165 168 164 165 165 158 147 143 138 142 155 165 166 149 140 161 213 232 235 234 228 234 227 235 239 257 264 283 291 295 295 302 313 302 258 296
177 183 169 177 186 186 192 196 185 189 195 192 191 189 189 190 190 190 198 194 193 190 193 192 192 196 195 194 196 188 190 189 188 186 184 183 179 175 173 178 171 173 182 178 184 178 172 171 171 170 170 171 165 158 156 141 135 137 145 152 155 152 156 162 194 226 220 225 229 231 216 225 235 237 249 271 290 292 299 299 293 305 294 300 278
188 180 182 186 191 194 194 192 196 196 195 193 192 192 192 193 193 197 202 193 193 193 195 193 198 198 195 195 194 190 195 192 193 189 186 185 180 180 180 179 179 184 179 186 179 173 173 173 169 168 168 165 163 159 146 140 137 138 145 150 155 162 142 168 212 233 233 231 224 228 231 230 241 245 261 284 282 294 286 283 300 296 283 292 301
184 184 190 193 196 192 193 196 197 197 195 193 194 196 190 196 197 201 200 197 194 197 195 199 199 197 197 196 194 194 195 193 196 190 183 183 185 182 185 182 182 180 180 174 164 170 170 167 169 164 167 163 156 148 141 134 137 134 143 157 150 154 170 185 222 224 235 239 237 227 235 239 239 241 252 258 250 252 261 280 300 309 306 285 298
191 197 206 213 203 196 198 202 204 199 195 196 199 197 197 202 199 201 201 197 196 196 201 201 199 195 195 194 197 193 194 192 194 191 189 185 182 182 182 181 181 172 169 159 170 168 168 166 163 164 160 154 150 145 141 139 140 141 145 142 154 146 174 205 224 222 237 239 242 241 236 254 240 243 243 246 246 251 254 266 274 287 299 308 311
198 205 208 209 203 211 207 203 201 197 194 201 202 198 200 198 197 203 204 198 200 202 204 203 199 192 198 196 192 193 192 193 193 189 185 182 180 182 179 178 167 167 164 166 163 166 163 161 160 158 157 151 145 146 144 144 145 149 154 153 165 179 193 221 220 226 238 235 245 241 239 251 250 226 248 244 249 253 251 247 242 249 278 286 303
210 229 241 222 212 211 211 211 207 205 205 205 206 204 206 203 203 202 199 200 205 202 203 202 199 199 196 196 197 196 194 194 187 183 177 174 178 174 167 165 174 168 163 164 160 159 158 158 155 157 154 150 151 148 145 146 143 150 154 162 169 174 211 226 224 227 240 228 239 248 238 251 243 229 239 251 248 248 251 245 239 245 234 261 281
217 220 219 216 213 214 209 209 211 212 215 216 210 198 201 208 211 207 207 207 204 200 203 207 206 206 199 197 195 193 192 190 184 174 172 179 179 176 174 172 158 162 157 157 157 157 157 157 156 156 155 153 149 147 144 144 146 151 158 167 177 182 206 226 231 225 236 222 237 246 238 245 237 235 255 260 258 255 259 255 247 251 237 246 270
216 217 216 216 217 217 214 215 211 210 211 208 198 197 209 211 204 211 217 214 207 205 204 207 209 205 202 194 196 194 189 185 181 174 179 184 180 173 169 166 170 160 164 158 158 160 158 158 160 157 156 153 152 149 150 148 148 158 163 171 188 186 207 220 230 219 219 220 231 248 258 266 273 269 264 260 258 257 255 252 254 248 251 252 265
226 224 221 219 221 224 226 223 224 232 216 193 196 203 208 199 207 208 207 206 207 209 204 211 205 207 200 195 195 188 188 180 175 181 180 181 176 174 174 168 153 168 159 160 162 163 162 161 159 162 161 162 156 157 156 152 154 162 169 177 187 190 207 222 216 235 222 227 235 245 258 258 254 268 263 260 256 262 261 261 259 252 255 250 248
223 224 222 223 225 228 232 236 235 204 218 210 208 204 203 204 210 207 206 210 209 210 206 208 203 207 207 201 190 187 180 178 179 179 181 178 176 176 168 159 169 166 165 163 164 162 161 160 161 163 161 159 158 157 158 154 162 166 176 175 184 192 206 217 212 231 224 219 217 237 253 255 249 258 264 258 260 260 259 261 251 248 250 246 239
227 227 225 224 222 220 219 217 212 212 215 214 209 207 211 213 206 203 204 211 207 210 205 199 197 201 206 202 185 184 181 182 182 182 182 178 177 171 168 168 168 165 168 166 164 162 163 161 161 162 161 162 161 161 161 159 167 171 175 182 186 193 202 209 214 224 221 214 231 245 255 251 251 257 253 255 251 254 252 253 253 248 251 247 246
246 244 245 235 232 238 224 217 217 216 215 212 209 213 214 209 208 207 210 212 207 206 198 196 199 202 194 186 191 183 178 185 188 189 184 178 173 172 170 170 167 164 167 168 163 162 161 164 163 164 165 163 163 163 163 166 170 172 176 185 180 179 189 200 218 227 225 219 236 254 255 248 247 251 253 252 246 248 248 249 253 249 249 250 245
256 241 233 238 241 230 224 222 217 217 218 216 215 212 210 213 206 206 213 210 206 196 193 196 195 194 189 191 193 184 183 186 191 189 189 178 174 169 172 170 165 169 167 160 165 165 165 167 170 170 167 167 166 162 161 164 166 168 174 179 180 183 195 200 214 225 230 224 234 243 254 248 246 252 255 250 248 251 248 248 252 251 249 248 241
249 248 242 238 231 230 232 229 225 222 218 214 215 215 213 212 211 209 211 198 201 190 196 192 193 192 194 192 191 190 189 188 187 187 187 183 175 171 170 170 170 167 165 170 168 172 174 174 171 168 163 160 157 158 160 162 162 162 165 168 178 190 200 211 214 222 223 230 236 242 247 246 246 252 257 254 253 255 257 256 256 254 249 243 240
255 241 244 258 267 250 238 232 227 226 220 218 214 212 211 209 213 208 207 199 197 191 193 193 192 194 193 196 194 196 192 185 184 182 174 174 179 176 171 172 172 167 167 170 174 171 174 167 163 156 159 157 156 155 157 159 159 161 165 174 181 193 210 214 219 223 229 229 233 236 238 239 245 249 252 255 261 259 255 252 248 253 251 250 249
275 257 246 246 246 248 246 239 231 229 225 224 220 216 213 208 210 204 199 195 193 191 192 192 190 195 198 198 199 197 191 187 177 169 170 173 172 175 176 169 164 169 173 173 171 170 162 157 157 155 153 150 151 154 155 156 159 162 168 170 179 197 217 225 227 229 227 231 233 238 239 240 246 248 249 252 251 258 259 261 258 253 252 252 251
244 251 251 250 247 246 245 242 234 230 229 227 223 222 219 220 217 201 192 198 190 187 190 191 192 197 201 197 190 186 192 184 171 165 168 172 172 172 169 167 170 169 169 169 164 158 156 152 149 150 150 152 156 161 162 163 161 168 168 179 189 201 215 222 231 236 241 242 240 238 241 239 241 251 257 261 261 260 259 259 254 252 254 254 257
226 238 242 241 242 248 247 242 241 234 231 228 224 222 215 212 212 199 196 198 173 191 188 191 196 201 195 185 181 179 180 179 173 172 172 168 167 168 167 168 170 166 160 156 154 155 157 157 152 152 152 155 162 161 174 176 174 166 168 172 184 199 208 221 235 243 245 246 250 252 252 260 265 268 270 272 274 275 274 273 275 271 267 268 269
239 236 241 245 252 253 246 244 242 238 232 228 224 222 217 217 212 194 200 190 182 188 190 192 200 195 184 176 176 180 173 180 180 169 166 166 168 167 166 166 163 159 156 155 154 157 163 165 162 160 161 164 169 172 181 185 183 179 171 173 176 188 202 224 230 242 254 258 261 261 266 268 270 273 274 274 277 276 276 276 277 278 278 279 282
252 247 247 255 253 247 240 238 239 239 236 232 231 226 213 216 205 201 199 178 184 188 192 197 195 178 177 177 180 174 174 178 173 175 170 169 162 163 166 165 159 159 162 159 164 168 163 161 160 160 158 155 160 181 184 186 187 188 180 170 176 186 206 221 233 242 251 260 266 269 269 267 268 267 263 264 270 277 281 280 281 280 279 278 277
252 258 259 252 242 232 229 235 238 240 239 234 228 223 216 215 201 208 171 175 187 190 191 190 182 176 179 178 174 175 177 176 179 172 167 164 166 167 167 165 172 167 156 165 167 160 164 162 162 157 158 168 169 185 183 184 186 189 195 188 176 191 209 221 234 244 253 258 263 268 271 269 267 273 278 278 277 273 274 278 281 281 280 280 280
263 258 251 243 236 234 233 234 235 237 234 233 224 219 223 214 201 166 169 184 180 187 185 184 177 180 179 177 175 175 178 179 173 169 167 169 170 175 171 166 155 155 164 165 162 164 164 168 171 169 165 167 168 182 181 183 184 192 196 197 179 197 216 227 234 244 248 259 265 266 269 273 273 276 275 276 277 275 273 270 267 265 265 269 275
284 275 260 254 246 238 239 241 243 240 239 234 234 222 225 184 166 176 182 174 183 180 182 179 180 181 176 176 177 177 178 174 171 169 170 172 173 168 166 167 166 169 169 170 168 167 173 172 171 166 153 163 169 179 179 180 184 191 194 195 188 198 216 224 221 241 261 261 264 265 268 271 273 276 275 277 281 281 280 280 278 275 273 277 278
317 295 279 268 249 238 237 238 240 244 244 228 230 220 197 202 173 177 176 179 176 179 183 176 181 183 182 180 176 178 176 171 171 171 173 175 175 173 170 165 161 160 157 151 160 165 169 171 168 163 160 148 165 177 175 179 185 187 187 188 183 201 193 204 252 255 255 259 259 263 266 268 273 276 279 284 288 290 289 288 289 287 280 273 268
332 330 314 302 299 287 266 264 268 250 242 233 229 192 185 163 168 177 170 173 172 181 185 186 188 186 183 180 178 176 174 173 173 174 178 177 174 170 165 160 160 165 164 169 172 173 172 168 166 167 156 148 163 177 177 180 183 183 185 171 178 166 199 222 233 249 256 259 260 260 262 268 275 277 284 289 292 296 296 295 287 281 278 279 283
341 344 344 337 326 321 309 292 274 274 269 280 182 164 155 164 175 167 166 178 181 192 189 188 192 187 183 179 178 174 174 174 175 181 180 177 171 166 169 169 169 165 170 173 161 141 154 162 162 163 163 153 161 179 179 179 179 182 178 159 174 176 175 195 228 244 254 256 258 263 267 274 281 284 285 289 296 300 291 283 281 286 294 292 290
338 344 342 334 335 327 322 346 351 335 333 354 126 146 154 175 176 179 179 180 196 198 188 193 194 182 177 175 175 175 176 176 181 182 176 173 174 174 167 166 172 170 170 155 151 141 140 140 154 155 169 161 154 175 179 177 179 182 182 160 163 150 189 221 227 240 250 257 259 264 275 279 280 282 288 295 297 297 293 296 303 301 298 300 303
331 337 336 324 329 349 348 350 346 329 327 25 110 151 177 177 182 168 184 201 206 205 203 191 166 169 173 173 177 179 179 179 180 173 173 172 162 158 169 171 172 163 132 146 142 145 148 158 162 166 178 166 166 173 182 178 180 183 180 161 152 172 202 212 236 245 246 242 261 279 281 279 282 287 293 295 298 303 305 304 301 301 302 300 302
320 319 325 328 322 320 309 310 302 274 198 153 138 148 193 184 168 179 209 215 206 118 134 166 169 167 172 176 177 181 177 176 172 169 163 160 167 169 165 171 166 161 139 122 145 144 139 155 165 171 174 168 169 161 176 177 180 180 183 179 157 180 188 218 230 244 237 254 281 277 279 279 285 290 293 299 305 307 307 306 308 302 294 293 302
309 308 317 318 316 312 310 312 311 268 178 169 158 171 187 175 176 213 222 140 133 149 136 141 158 169 173 174 173 168 166 164 160 156 162 166 165 165 169 169 164 144 150 143 142 148 150 153 166 171 174 170 175 171 167 178 179 181 183 187 164 179 206 215 231 223 254 276 276 278 277 281 286 290 300 307 307 307 308 314 302 298 301 307 309
324 324 325 325 316 312 310 304 300 276 195 185 163 182 183 185 208 226 173 150 147 149 150 151 155 162 169 169 167 164 163 162 162 163 162 164 160 164 169 168 164 149 148 148 152 151 150 154 160 170 175 176 174 172 171 177 180 178 181 191 193 200 223 210 200 231 246 270 278 274 278 277 288 301 307 306 306 309 315 304 303 307 310 311 315
308 307 310 321 315 309 307 305 303 288 244 213 182 201 203 200 224 188 162 150 152 152 154 155 158 161 158 162 164 164 162 162 162 160 164 162 164 168 168 172 172 155 145 144 152 147 148 151 155 162 174 174 171 171 179 173 175 178 184 189 202 210 215 206 206 213 238 270 274 268 265 284 305 308 305 307 310 313 308 307 308 312 315 319 317
316 318 321 317 307 305 306 306 304 297 282 263 242 222 230 231 237 159 169 163 156 153 154 163 161 158 160 158 153 161 163 163 166 164 166 167 164 166 170 178 171 173 159 147 149 153 153 147 151 161 164 168 153 153 166 173 174 178 183 191 197 200 218 238 242 171 248 252 262 275 297 307 305 306 310 314 314 311 309 309 313 316 319 314 305
319 319 323 322 313 305 299 295 295 296 283 269 253 230 241 244 156 175 167 165 158 158 162 163 162 160 159 154 154 157 162 167 169 175 175 172 167 171 174 174 174 159 156 148 153 155 148 150 155 154 157 144 150 160 170 185 183 183 186 187 185 198 216 234 243 233 261 274 282 296 305 307 309 309 311 309 300 302 309 312 313 313 306 296 292
314 311 314 316 316 311 309 306 299 291 271 264 250 240 239 238 184 175 164 162 166 167 165 162 163 162 154 160 162 164 165 169 174 173 177 176 175 171 156 160 162 163 166 161 152 152 151 152 150 155 140 147 158 169 178 189 186 180 177 176 183 186 216 232 216 257 273 360 325 309 304 305 313 308 310 310 309 309 306 300 293 292 289 290 288
303 305 307 307 305 304 303 302 296 290 266 252 252 248 242 229 196 177 168 165 172 175 172 175 169 166 167 171 173 166 166 159 178 178 175 159 161 165 170 177 172 171 158 162 164 160 159 159 157 154 153 153 165 173 188 190 187 181 188 182 177 169 197 154 161 232 143 155 307 331 324 310 296 300 304 301 290 285 289 295 293 290 287 283 291
308 307 304 299 299 299 296 292 287 287 282 256 251 249 239 212 195 181 173 175 183 182 175 170 170 166 173 175 169 171 176 172 175 178 187 180 158 169 171 138 178 172 174 170 174 178 171 168 157 157 155 161 163 183 194 188 193 186 186 189 165 178 178 148 211 179 125 100 56 344 303 309 311 312 315 310 308 307 300 294 293 296 295 296 293
303 304 305 301 295 291 290 287 284 283 280 270 257 252 234 209 189 184 181 186 181 174 174 177 177 177 173 172 175 172 174 176 177 174 168 170 199 186 181 168 177 193 201 206 185 177 172 161 158 161 163 163 173 172 182 180 185 188 180 173 176 182 172 172 189 132 103 95 303 305 285 294 306 312 315 313 312 309 305 306 299 308 305 299 295
305 304 303 299 296 293 290 285 282 279 274 268 260 253 232 205 194 189 189 189 171 175 182 181 179 188 183 179 177 175 177 177 176 168 169 169 163 183 187 189 196 188 191 185 178 166 158 155 147 145 157 152 153 165 174 184 185 173 168 166 161 162 163 155 136 108 71 115 203 310 295 305 290 298 293 299 304 303 304 304 307 305 297 299 301